Regional Weather Roundup
Issued by NWS State College, PA

Home | Current Version | Previous Version | Text Only | Print | Product List | Glossary On
Versions: 1 2 3 4 5 6 7 8 9 10 11 12 13 14 15 16 17 18 19 20 21 22 23 24 25 26 27 28 29 30 31 32 33 34 35 36 37 38 39 40 41 42 43 44 45 46 47 48 49 50
000
ASUS41 KCTP 271103
RWRCTP

REGIONAL WEATHER ROUNDUP
NATIONAL WEATHER SERVICE STATE COLLEGE PA
600 AM EST TUE JAN 27 2015

Note: "fair" indicates few or no clouds below 12,000 feet with no
significant weather and/or obstructions to visibility.

* = STATION THAT DOES NOT REPORT PRECIPITATION /E.G. RAIN...SNOW...ETC/
    THUNDER OR FOG.

PAZ002>004-007>009-013>016-020>023-029>032-271200-
WESTERN PENNSYLVANIA

CITY           SKY/WX    TMP DP  RH WIND       PRES   REMARKS
ERIE           LGT SNOW  20  14  77 NE10      29.93R WCI   9
MEADVILLE      CLOUDY    16  13  88 N12G20    29.85R WCI   3
FRANKLIN*      CLOUDY    16  10  79 N7        29.84R WCI   6
NEW CASTLE     FLURRIES  18  14  84 NW6       29.89R WCI  10
BEAVER COUNTY  NOT AVBL
BUTLER*        CLOUDY    18  16  93 W3        29.86S
PITTSBURGH INT LGT SNOW  19  15  84 N12       29.86R FOG     WCI   7
PITTSBURGH     CLOUDY    18  13  80 NW8       29.84S HAZE    WCI   8
INDIANA*       CLOUDY    19  19 100 VRB3      29.85S FOG
LATROBE        FLURRIES  19  19 100 W6        29.86S WCI  11
WASHINGTON CO* CLOUDY    19  14  79 CALM      29.88R
$$

PAZ004>006-010>012-017>019-024>028-033>037-041-042-045-046-049>053-271200-
CENTRAL PENNSYLVANIA

CITY           SKY/WX    TMP DP  RH WIND       PRES   REMARKS
BRADFORD       LGT SNOW  12   7  80 N6        29.76S WCI   3
DUBOIS         LGT SNOW  15  12  88 N6        29.77R FOG     WCI   6
CLEARFIELD     LGT SNOW  17  14  88 N3        29.79R FOG
JOHNSTOWN      LGT SNOW  16  13  88 NW9       29.73R FOG     WCI   4
ALTOONA        LGT SNOW  21  17  84 NW8       29.77R FOG     WCI  11
STATE COLLEGE  LGT SNOW  19  16  86 N8        29.79S FOG     WCI   9
WILLIAMSPORT   CLOUDY    22  13  68 W12       29.82R WCI  10
SELINSGROVE    CLOUDY    24  17  74 N5        29.81R
FT INDIANTOWN  MIX PCPN  25  18  73 N9        29.75R
CAPITAL CITY   FLURRIES  27  20  75 NW12      29.78R
HARRISBURG     LGT SNOW  26  20  77 NW8       29.77R
YORK           FLURRIES  26  22  84 NW7       29.76R
$$

PAZ038>040-043-044-047-048-054-055-060>062-067>071-271200-
EASTERN PENNSYLVANIA

CITY           SKY/WX    TMP DP  RH WIND       PRES   REMARKS
SCRANTON       LGT SNOW  19  13  77 N9        29.75R WCI   8
MOUNT POCONO   LGT SNOW  16  11  80 N14G24    29.62R WCI   2
ALLENTOWN      CLOUDY    25  17  72 NW7       29.73R
QUAKERTOWN*    NOT AVBL
READING        CLOUDY    27  18  69 NW9       29.74R
LANCASTER      FLURRIES  26  19  74 NW7       29.74R
COATESVILLE    LGT SNOW  27  23  86 N8        29.71S
POTTSTOWN      FLURRIES  24  21  88 NW3       29.74R
BLUE BELL      CLOUDY    27  23  86 CALM      29.71R
DOYLESTOWN     LGT SNOW  22  20  92 N7        29.70R FOG     WCI  13
WILLOW GROVE   NOT AVBL
NORTH PHILA    LGT SNOW  26  19  74 N16       29.72S WCI  14
PHILADELPHIA   LGT SNOW  26  20  77 N13       29.73R WCI  15
$$


USA.gov is the U.S. government's official web portal to all federal, state and local government web resources and services.